Hourly Weather Korçe

Today, 25 September, Friday

Time Temperature Precipitation Wind Pressure Humidity
00:00 +13°C° 0 mm 1 mps 666 mmHg 87%
01:00 +13°C° 0 mm 1 mps 666 mmHg 87%
02:00 +13°C° 0 mm 1 mps 665 mmHg 87%
03:00 +12°C° 0 mm 1 mps 665 mmHg 86%
04:00 +12°C° 0 mm 1 mps 665 mmHg 85%
05:00 +13°C° 0 mm 1 mps 665 mmHg 81%
06:00 +14°C° 0 mm 2 mps 665 mmHg 76%
07:00 +15°C° 0 mm 2 mps 665 mmHg 71%
08:00 +17°C° 0 mm 2 mps 665 mmHg 64%
09:00 +19°C° 0 mm 3 mps 666 mmHg 57%
10:00 +21°C° 0 mm 3 mps 666 mmHg 50%
11:00 +22°C° 0 mm 3 mps 666 mmHg 48%
12:00 +22°C° 0 mm 4 mps 666 mmHg 46%
13:00 +23°C° 0 mm 4 mps 665 mmHg 44%
14:00 +22°C° 0 mm 4 mps 665 mmHg 48%
15:00 +21°C° 0 mm 4 mps 664 mmHg 51%
16:00 +20°C° 0 mm 3 mps 663 mmHg 55%
17:00 +19°C° 0.1 mm 3 mps 662 mmHg 64%
18:00 +17°C° 0.1 mm 3 mps 662 mmHg 72%
19:00 +16°C° 0.1 mm 3 mps 661 mmHg 81%
20:00 +14°C° 0.9 mm 3 mps 661 mmHg 85%
21:00 +14°C° 0.9 mm 3 mps 661 mmHg 89%
22:00 +14°C° 0.9 mm 3 mps 660 mmHg 93%
23:00 +14°C° 0.6 mm 3 mps 660 mmHg 93%

Tomorrow, 26 September, Saturday

Time Temperature Precipitation Wind Pressure Humidity
00:00 +14°C° 0.6 mm 4 mps 659 mmHg 94%
01:00 +13°C° 0.6 mm 4 mps 659 mmHg 94%
02:00 +13°C° 2.8 mm 4 mps 658 mmHg 94%
03:00 +13°C° 2.8 mm 3 mps 658 mmHg 94%
04:00 +13°C° 2.8 mm 3 mps 658 mmHg 94%
05:00 +13°C° 1.9 mm 3 mps 657 mmHg 93%
06:00 +13°C° 1.9 mm 3 mps 657 mmHg 93%
07:00 +13°C° 1.9 mm 2 mps 656 mmHg 92%
08:00 +13°C° 0.7 mm 3 mps 657 mmHg 87%
09:00 +13°C° 0.7 mm 3 mps 657 mmHg 82%
10:00 +13°C° 0.7 mm 3 mps 657 mmHg 77%
11:00 +12°C° 1.3 mm 3 mps 657 mmHg 80%
12:00 +11°C° 1.3 mm 3 mps 656 mmHg 84%
13:00 +11°C° 1.3 mm 3 mps 656 mmHg 88%
14:00 +11°C° 1.8 mm 3 mps 656 mmHg 86%
15:00 +11°C° 1.8 mm 4 mps 656 mmHg 85%
16:00 +11°C° 1.8 mm 4 mps 656 mmHg 83%
17:00 +10°C° 0.8 mm 4 mps 656 mmHg 85%
18:00 +9°C° 0.8 mm 3 mps 657 mmHg 88%
19:00 +8°C° 0.8 mm 2 mps 657 mmHg 90%
20:00 +8°C° 0.2 mm 2 mps 657 mmHg 90%
21:00 +8°C° 0.2 mm 2 mps 658 mmHg 90%
22:00 +8°C° 0.2 mm 2 mps 658 mmHg 90%
23:00 +8°C° 0.2 mm 2 mps 659 mmHg 91%

Day after tomorrow, 27 September, Sunday

Time Temperature Precipitation Wind Pressure Humidity
00:00 +8°C° 0.2 mm 2 mps 659 mmHg 92%
01:00 +8°C° 0.2 mm 2 mps 659 mmHg 92%
02:00 +7°C° 0.1 mm 2 mps 659 mmHg 93%
03:00 +7°C° 0.1 mm 2 mps 659 mmHg 93%
04:00 +7°C° 0.1 mm 2 mps 659 mmHg 93%
05:00 +8°C° 0 mm 2 mps 660 mmHg 91%
06:00 +8°C° 0 mm 2 mps 660 mmHg 90%
07:00 +9°C° 0 mm 2 mps 661 mmHg 89%
08:00 +12°C° 0.1 mm 2 mps 662 mmHg 81%
09:00 +13°C° 0.1 mm 2 mps 663 mmHg 74%
10:00 +14°C° 0.1 mm 3 mps 663 mmHg 66%
11:00 +14°C° 0.1 mm 3 mps 664 mmHg 64%
12:00 +16°C° 0.1 mm 3 mps 664 mmHg 61%
13:00 +17°C° 0.1 mm 4 mps 664 mmHg 59%
14:00 +16°C° 0.2 mm 3 mps 664 mmHg 63%
15:00 +16°C° 0.2 mm 3 mps 664 mmHg 67%
16:00 +14°C° 0.2 mm 3 mps 664 mmHg 71%
17:00 +13°C° 0.1 mm 3 mps 664 mmHg 78%
18:00 +12°C° 0.1 mm 2 mps 664 mmHg 85%
19:00 +10°C° 0.1 mm 2 mps 664 mmHg 92%
20:00 +10°C° 0 mm 2 mps 664 mmHg 92%
21:00 +10°C° 0 mm 3 mps 664 mmHg 92%
22:00 +9°C° 0 mm 3 mps 664 mmHg 92%
23:00 +10°C° 0.2 mm 3 mps 664 mmHg 91%

28 September, Monday

Time Temperature Precipitation Wind Pressure Humidity
00:00 +10°C° 0.2 mm 3 mps 663 mmHg 89%
01:00 +11°C° 0.2 mm 3 mps 663 mmHg 88%
02:00 +10°C° 1.4 mm 3 mps 663 mmHg 90%
03:00 +10°C° 1.4 mm 3 mps 663 mmHg 91%
04:00 +10°C° 1.4 mm 3 mps 663 mmHg 93%
05:00 +11°C° 2.1 mm 3 mps 663 mmHg 93%
06:00 +12°C° 2.1 mm 2 mps 663 mmHg 94%
07:00 +12°C° 2.1 mm 2 mps 664 mmHg 94%
08:00 +13°C° 0.6 mm 2 mps 664 mmHg 91%
09:00 +13°C° 0.6 mm 3 mps 665 mmHg 88%
10:00 +14°C° 0.6 mm 3 mps 665 mmHg 85%
11:00 +14°C° 0.5 mm 3 mps 666 mmHg 80%
12:00 +15°C° 0.5 mm 4 mps 666 mmHg 76%
13:00 +17°C° 0.5 mm 4 mps 666 mmHg 72%
14:00 +16°C° 0.2 mm 3 mps 666 mmHg 72%
15:00 +16°C° 0.2 mm 3 mps 665 mmHg 71%
16:00 +14°C° 0.2 mm 3 mps 665 mmHg 71%
17:00 +14°C° 0.1 mm 2 mps 665 mmHg 78%
18:00 +13°C° 0.1 mm 2 mps 665 mmHg 84%
19:00 +10°C° 0.1 mm 2 mps 665 mmHg 91%
20:00 +11°C° 0.3 mm 1 mps 665 mmHg 90%
21:00 +11°C° 0.3 mm 1 mps 665 mmHg 90%
22:00 +11°C° 0.3 mm 1 mps 665 mmHg 89%
23:00 +11°C° 2.7 mm 1 mps 665 mmHg 91%

29 September, Tuesday

Time Temperature Precipitation Wind Pressure Humidity
00:00 +11°C° 2.7 mm 1 mps 665 mmHg 94%
01:00 +10°C° 2.7 mm 2 mps 665 mmHg 96%
02:00 +10°C° 2.9 mm 2 mps 665 mmHg 95%
03:00 +10°C° 2.9 mm 1 mps 665 mmHg 95%
04:00 +10°C° 2.9 mm 1 mps 665 mmHg 94%
05:00 +10°C° 0.2 mm 1 mps 665 mmHg 92%
06:00 +11°C° 0.2 mm 1 mps 665 mmHg 91%
07:00 +11°C° 0.2 mm 1 mps 666 mmHg 89%
08:00 +12°C° 0.2 mm 1 mps 666 mmHg 83%
09:00 +13°C° 0.2 mm 2 mps 666 mmHg 77%
10:00 +15°C° 0.2 mm 2 mps 667 mmHg 71%
11:00 +14°C° 0.1 mm 3 mps 667 mmHg 67%
12:00 +16°C° 0.1 mm 3 mps 667 mmHg 64%
13:00 +16°C° 0.1 mm 3 mps 667 mmHg 60%
14:00 +16°C° 0 mm 3 mps 667 mmHg 63%
15:00 +14°C° 0 mm 3 mps 667 mmHg 65%
16:00 +14°C° 0 mm 3 mps 667 mmHg 67%
17:00 +12°C° 0 mm 3 mps 667 mmHg 74%
18:00 +12°C° 0 mm 2 mps 666 mmHg 82%
19:00 +10°C° 0 mm 1 mps 666 mmHg 89%
20:00 +10°C° 0 mm 1 mps 666 mmHg 89%
21:00 +9°C° 0 mm 1 mps 666 mmHg 89%
22:00 +9°C° 0 mm 1 mps 666 mmHg 89%
23:00 +9°C° 0 mm 1 mps 666 mmHg 89%

30 September, Wednesday

Time Temperature Precipitation Wind Pressure Humidity
00:00 +9°C° 0 mm 1 mps 666 mmHg 88%
01:00 +9°C° 0 mm 1 mps 665 mmHg 88%
02:00 +9°C° 0 mm 1 mps 665 mmHg 87%
03:00 +8°C° 0 mm 1 mps 665 mmHg 87%
04:00 +8°C° 0 mm 1 mps 665 mmHg 87%
05:00 +9°C° 0 mm 1 mps 665 mmHg 84%
06:00 +10°C° 0 mm 1 mps 665 mmHg 80%
07:00 +11°C° 0 mm 1 mps 665 mmHg 77%
08:00 +13°C° 0 mm 1 mps 666 mmHg 68%
09:00 +15°C° 0 mm 1 mps 666 mmHg 59%
10:00 +18°C° 0 mm 1 mps 666 mmHg 50%
11:00 +19°C° 0 mm 1 mps 666 mmHg 48%
12:00 +19°C° 0 mm 1 mps 666 mmHg 46%
13:00 +19°C° 0 mm 2 mps 666 mmHg 44%
14:00 +19°C° 0 mm 2 mps 665 mmHg 48%
15:00 +18°C° 0 mm 2 mps 665 mmHg 53%
16:00 +17°C° 0 mm 2 mps 665 mmHg 57%
17:00 +16°C° 0 mm 2 mps 664 mmHg 67%
18:00 +14°C° 0 mm 1 mps 664 mmHg 76%
19:00 +12°C° 0 mm 1 mps 663 mmHg 86%
20:00 +11°C° 0 mm 1 mps 663 mmHg 88%
21:00 +11°C° 0 mm 1 mps 663 mmHg 90%
22:00 +10°C° 0 mm 0 mps 663 mmHg 91%
23:00 +9°C° 0 mm 0 mps 663 mmHg 90%
Show more